Location: Burzi?i
(45.0869°N, 16.0577°E)
Time: 11:33:04
(UTC+00:00)

Meteor 2-16 Rocket - Pass Details

Date: 29 October 2020
Orbit: 941 x 956 km, 82.6° (Epoch: 27 November)

Event Time Altitude Azimuth Distance (km) Brightness Sun altitude
Rises 16:12:12 0° 354° (N) 3,617 7.4 -5.0°
Reaches altitude 10° 16:14:44 10° 358° (N) 2,669 6.7 -5.4°
Maximum altitude 16:20:46 60° 78° (ENE) 1,073 4.5 -6.5°
Drops below altitude 10° 16:26:45 10° 158° (SSE) 2,658 6.7 -7.5°
Sets 16:29:17 0° 162° (SSE) 3,601 7.4 -7.9°
